Find Skynet 4F

NORAD ID: 26695 Int'l Des: 2001-005 Owner: MOD Country: UK operational
HEOCIRCULAR

Aktuelle Ansicht

3D-Globus wird geladen...

Über Skynet 4F

Beschreibung wird geladen...

Nächste Überflüge

Passes for default location (London). Set your location on the main map for personalized predictions.

Höhenverlauf

Loading altitude history...

Zweizeiliger Elementsatz

1 26695U 01005B 26149.62158707 -.00000068 00000-0 00000-0 0 9997
2 26695 12.1061 18.5900 0004070 224.0268 62.7522 0.99150651 92426
Epoch: 29. Mai 2026 • Age: 14 hours

Aktueller Status

Höhe 36100.7 km
Geschwindigkeit 3.06 km/s
Subsatellitenpunkt 7.64°N, 167.38°W
Startdatum 7. Feb. 2001
Alter 25.3 years
Typ other

Technische Details

Klassifizierung Payload
Masse 1489.00 kg
Trockenmasse 830.00 kg
Gesamtmasse 2119.00 kg
Länge 1.80 m
Durchmesser 1.90 m
Spannweite 16.10 m
Form Box + 2 Pan
Hersteller ASTUK
Bus-Typ ECS
Phasenstatus Renamed
Besitzer/Staat MOD/UK

Most Searched